Regional Weather Roundup
Issued by NWS

Home | Current Version | Previous Version | Graphics & Text | Print | Product List | Glossary On
Versions: 1 2 3 4 5 6 7 8 9 10 11 12 13 14 15 16 17 18 19 20 21 22 23 24 25 26 27 28 29 30 31 32 33 34 35 36 37 38 39 40 41 42 43 44 45 46 47 48 49 50
000
ASUS43 KMKX 211911
RWRWI

WISCONSIN REGIONAL WEATHER ROUNDUP
NATIONAL WEATHER SERVICE MILWAUKEE/SULLIVAN WI
200 PM CDT SAT OCT 21 2017

NOTE: "FAIR" INDICATES FEW OR NO CLOUDS BELOW 12,000 FEET WITH NO
SIGNIFICANT WEATHER AND/OR OBSTRUCTIONS TO VISIBILITY.

WIZ001-002-006>008-014>016-023>028-212000-
NORTHWEST WISCONSIN

CITY           SKY/WX    TMP DP  RH WIND       PRES   REMARKS
SUPERIOR ARPT  CLOUDY    61  59  94 S9        29.67S
ASHLAND        PTSUNNY   63  58  83 S14G23    29.72F
HAYWARD        CLOUDY    61  56  83 S12       29.74F
SIREN          CLOUDY    63  58  85 S10G21    29.69F
CUMBERLAND     CLOUDY    61  57  88 S13       29.73S
RICE LAKE      CLOUDY    64  58  82 SE12G20   29.75F
CHETEK         CLOUDY    64  59  82 SE10G20   29.75F
LADYSMITH      CLOUDY    67  58  72 S16G24    29.78F
EAU CLAIRE     PTSUNNY   67  57  70 S18G29    29.76S
MENOMONIE      CLOUDY    67  59  74 S16G24    29.75S
NEW RICHMOND   CLOUDY    64  59  83 S15G26    29.70F
OSCEOLA        CLOUDY    64  64 100 S16G22    29.72S
$$

WIZ003>005-009-010-017-018-212000-
NORTH CENTRAL WISCONSIN

CITY           SKY/WX    TMP DP  RH WIND       PRES   REMARKS
MANITOWISH WTR CLOUDY    59  59 100 SE13      29.79F
ARBOR VITAE    CLOUDY    64  56  75 S12G22    29.82F
WOODRUFF       CLOUDY    64  56  75 S12G22    29.82F
RHINELANDER    CLOUDY    64  57  78 S10       29.85F
EAGLE RIVER    NOT AVBL
LAND O LAKES   CLOUDY    65  55  68 S7G17     29.83F
PHILLIPS       PTSUNNY   64  58  82 S14G22    29.80F
TOMAHAWK       PTSUNNY   67  55  66 SE9       29.83F
MEDFORD        CLOUDY    64  55  71 S18G25    29.83S
MERRILL        CLOUDY    66  57  71 SW9       29.85F
$$

WIZ029-030-035-036-043>047-212000-
CENTRAL WISCONSIN

CITY           SKY/WX    TMP DP  RH WIND       PRES   REMARKS
WAUSAU         PTSUNNY   69  56  62 S6        29.83F
MOSINEE        PTSUNNY   72  57  60 SW9       29.86F
MARSHFIELD     CLOUDY    67  55  65 S15G21    29.84F
STEVENS POINT  SUNNY     71  54  54 S14G20    29.86S
WAUPACA        SUNNY     76  55  48 S14       29.88S
WAUTOMA        SUNNY    N/A N/A N/A S10G21    29.87F
WISC RAPIDS    SUNNY     75  58  55 S10       29.86S
CAMP DOUGLAS   PTSUNNY   73  57  56 S13G20    29.85R
$$

WIZ011>013-019>022-031-037>040-048>050-212000-
NORTHEAST WISCONSIN

CITY           SKY/WX    TMP DP  RH WIND       PRES   REMARKS
ANTIGO         CLOUDY    69  56  62 S14       29.86F
SHAWANO        SUNNY     76  54  47 S12G18    29.87F
OCONTO         SUNNY     71  53  52 SE12      29.89F
STURGEON BAY   SUNNY     63  53  70 S22G29    29.93F
GREEN BAY      SUNNY     74  55  51 S8        29.90F
MANITOWOC      SUNNY     62  53  72 S20G26    29.95F
APPLETON       NOT AVBL
CLINTONVILLE   SUNNY     73  54  49 S17       29.87F
OSHKOSH        SUNNY     73  57  57 S16       29.90F
$$

WIZ032>034-041-042-053>061-212000-
SOUTHWEST WISCONSIN

CITY           SKY/WX    TMP DP  RH WIND       PRES   REMARKS
LA CROSSE      CLOUDY    68  57  68 S8        29.83S
SPARTA         CLOUDY    69  58  67 SW5       29.85F
VIROQUA        CLOUDY    73  58  60 S14G22    29.84F
BOSCOBEL       SUNNY     78  57  48 S12G24    29.84F
PRAIRIE DU CHI MOSUNNY   76  55  47 SE13G18   29.81F
PLATTEVILLE    SUNNY     76  58  54 S22G29    29.88S
$$

WIZ056-057-062-063-064-067-068-212000-
SOUTH CENTRAL WISCONSIN

CITY           SKY/WX    TMP DP  RH WIND       PRES   REMARKS
REEDSBURG      SUNNY     74  58  55 S13G20    29.86F
BARABOO/DELLS  SUNNY     73  56  55 S15G23    29.87F
LONE ROCK      MOSUNNY   77  60  55 S17G24    29.86F
MINERAL POINT  MOSUNNY   77  59  53 S16G23    29.88F
MADISON        MOSUNNY   75  58  55 S18G26    29.89F
MIDDLETON      MOSUNNY   76  58  52 S17G29    29.90S
WATERTOWN      SUNNY     75  57  53 S16G23    29.91F
MONROE         SUNNY     73  54  49 S18G26    29.92S
JANESVILLE     MOSUNNY   77  55  47 S17G23    29.93F
$$

WIZ051-052-058>065-066-070>072-212000-
SOUTHEAST WISCONSIN

CITY           SKY/WX    TMP DP  RH WIND       PRES   REMARKS
MILWAUKEE      MOSUNNY   75  56  51 S13G21    29.96F
WAUKESHA       SUNNY     70  52  52 S9G15     29.96F
MILWAUKEE/TIMM SUNNY     73  50  43 S13G18    29.96F
RACINE         MOSUNNY   68  55  63 S15       29.99F
BURLINGTON     SUNNY     76  57  50 S13G22    29.96F
KENOSHA        SUNNY     75  56  51 S15G24    29.98F
FOND DU LAC    SUNNY     75  53  46 S17G25    29.91F
SHEBOYGAN      SUNNY     66  56  70 S14G22    29.95F
WEST BEND      SUNNY     73  52  46 S13G18    29.94F
JUNEAU         SUNNY     74  56  55 S16G22    29.92F
$$

LSZ147-162-212000-
LAKE SUPERIOR

STATION/POSITION TIME  TEMP    WIND        PRES    WAVE
                       AIR SEA DIR/SP/G            HT/PER
                 (UTC) (F)     (DEG/KT/KT) (MB)    (FT/S)
W MID LAKE BUOY  1850   59 52              1006.5S   2/ 4
DEVILS ISLAND    1900   61     180/ 14/ 19 1005.7F
SAXON HARBOR     1840   68     190/  9/ 21 1005.8F
$$

LMZ867-665-643>646-212000-
LAKE MICHIGAN

STATION/POSITION TIME  TEMP    WIND        PRES    WAVE
                       AIR SEA DIR/SP/G            HT/PER
                 (UTC) (F)     (DEG/KT/KT) (MB)    (FT/S)
S GREEN BAY BUOY 1830   64 59  150/  8/ 10 1012.8F
N MID LAKE BUOY  1850   61 58  180/ 21/ 25 1015.0F   6/ 6
NORTHPORT PIER   1840   61     160/ 12/ 22 1013.9F
KEWAUNEE LAKESHO 1842   54     180/ 10/ 14 1013.5F
SHEBOYGAN LAKESH 1900   55     180/ 19/ 20 1014.1F
PORT WASHINGTON  1840   60     180/ 10/ 14 1015.6F
ATWATER BUOY     1709   57 53  160/ 16/ 19 1015.7F
MILWAUKEE LAKESH 1850   58     140/ 19/ 21   N/A
S MID LAKE BUOY  1850   64 61  150/ 17/ 21 1016.7F   4/ 5
KENOSHA   LAKESH 1900   59     170/ 17/ 17 1015.2
$$

TC  - TEMPERATURE IN CELSIUS
VSB - VISIBILITY IN STATUTE MILES
WCI - WIND CHILL INDEX
HX  - HEAT INDEX





USA.gov is the U.S. government's official web portal to all federal, state and local government web resources and services.